Regional Weather Roundup
Issued by NWS

Home | Current Version | Previous Version | Text Only | Print | Product List | Glossary On
Versions: 1 2 3 4 5 6 7 8 9 10 11 12 13 14 15 16 17 18 19 20 21 22 23 24 25 26 27 28 29 30 31 32 33 34 35 36 37 38 39 40 41 42 43 44 45 46 47 48 49 50
854
ASCA42 TJSJ 201510
RWRPR
PUERTO RICO/U.S. VIRGIN ISLANDS HOURLY WEATHER ROUNDUP
NATIONAL WEATHER SERVICE SAN JUAN PR
1100 AM AST MON NOV 20 2017

PRZ001>002-007>008-010-201600-
PUERTO RICO

CITY           SKY/WX    TMP DP  RH WIND       PRES   REMARKS
SAN JUAN LMM   PTSUNNY   84  77  79 NE6       29.94S HX  94
AGUADILLA      CLOUDY    88  73  62 CALM      29.97R HX  96
$$

VIZ001>002-201600-
U.S. VIRGIN ISLANDS

CITY           SKY/WX    TMP DP  RH WIND       PRES   REMARKS
CHARLOTTE AMA    N/A    N/A N/A N/A MISG      29.95S
$$

HOURLY WEATHER ROUNDUP FOR THE NEWS MEDIA

CITY           SKY/WX    TMP DP  RH WIND       PRES   REMARKS
ORLANDO        SUNNY     68  53  58 N8        30.14R
NEW YORK       PTSUNNY   41  25  53 W15       30.06S
NEWARK         PTSUNNY   42  22  44 W17G26    30.05S
CHICAGO        MOSUNNY   39  26  59 SW17G24   29.91F WCI  30
HARTFORD       SUNNY     49  20  31 W16G25    29.92R
BOSTON         MOSUNNY   38  14  37 W28G36    29.88R WCI  26
DALLAS         PTSUNNY   52  31  44 S7        30.21S
PHILADELPHIA   MOSUNNY   42  19  39 W16       30.14R
LOS ANGELES    MOCLDY    57  34  41 CALM      30.03R
WASHINGTON DC  SUNNY     41  22  46 NW8       30.21R



USA.gov is the U.S. government's official web portal to all federal, state and local government web resources and services.